"Pseudo-MPEC" for P1168qS

Created 2020 Sep 19 21:07:26 UT using Find_Orb

Click here for an explanation of pseudo-MPECs

 
 Astrometry: 
     P1168qS  C2020 09 15y;hmj8(%UAstrometry[redacted;:nfJ\S0_clickZ!PR9X#i-jF51
     P1168qS  C2020 09 15p41o*S=tFES!ZmI!q_hereT'xhfor]N@P-x?nB6\-_f;V:aVG6;eF51
     P1168qS  C2020 09 15k2%yn#g+,b[m`Ta\Dwi^*explanation:XEpaauMRa,R//s:o[ObF51
     P1168qS ^C2020 09 16.59452204 39 45.497-38 40 06.39   ~9GLb 20.79GVNEOCP568
     P1168qS ^C2020 09 16.59547004 39 45.580-38 40 06.74   ~9GLb 20.80GVNEOCP568
     P1168qS ^C2020 09 16.59641904 39 45.666-38 40 07.11   ~9GLb 20.79GVNEOCP568

Station data:
(568) Mauna Kea  (N19.826116 W155.472200)  US/Hawaii.
(F51) Pan-STARRS 1, Haleakala  (N20.707235 W156.255910)  US/Hawaii.
   Observers N. Primak, A. Schultz, S. Watters, J. Thiel, T. Goggia. Measurer
   PS1 Science Consortium. 1.8-m Ritchey-Chrétien + CCD.

Orbital elements:  P1168qS
   Perihelion 2020 Aug 23.336682 +/- 48.2 TT =  8:04:49 (JD 2459084.836682)
Epoch 2020 Sep 16.0 TT = JDT 2459108.5   Earth MOID: 0.4562   AutoNEOCP
M   5.50938494 +/- 32               (J2000 ecliptic)
n   0.23282385 +/- 0.268            Peri.  239.49718 +/- 100
a   2.61688354 +/- 2.05             Node   112.14197 +/- 34
e   0.4939101 +/- 0.266             Incl.   27.43089 +/- 10
P   4.23                   H 19.5   G  0.15   U 11.9  SR
q 1.32437814 +/- 0.342    Q 3.90938893 +/- 40.8
From 6 observations 2020 Sept. 15-16 (23.7 hr); mean residual 0".02
Residuals in arcseconds: 
200915 F51  .00   .05-    200915 F51  .01+  .03+    200916 568  .01-  .01+    
200915 F51  .01-  .03+    200916 568  .02+  .04-    200916 568  .01-  .03+    

Ephemerides (geocentric):
Date (UTC) HH   RA              Dec         delta   r     elong  mag " sig PA
---- -- -- --  -------------   -----------  ------ ------ -----  --- ---- ---
2020 09 19 21  04 44 38.422   -39 00 42.56  .70865 1.3554 103.2 21.2  254  19
2020 09 19 22  04 44 41.847   -39 00 57.47  .70871 1.3554 103.2 21.2  260  19
2020 09 19 23  04 44 45.264   -39 01 12.36  .70877 1.3555 103.3 21.2  266  19
2020 09 20 00  04 44 48.674   -39 01 27.23  .70884 1.3556 103.3 21.2  272  19
2020 09 20 01  04 44 52.076   -39 01 42.07  .70890 1.3557 103.3 21.2  278  19
2020 09 20 02  04 44 55.471   -39 01 56.89  .70896 1.3558 103.3 21.2  284  19
2020 09 20 03  04 44 58.859   -39 02 11.69  .70902 1.3559 103.3 21.2  291  19
2020 09 20 04  04 45 02.239   -39 02 26.46  .70908 1.3560 103.3 21.2  297  19
2020 09 20 05  04 45 05.611   -39 02 41.21  .70914 1.3561 103.3 21.2  304  19
2020 09 20 06  04 45 08.976   -39 02 55.94  .70920 1.3562 103.3 21.2  310  19
2020 09 20 07  04 45 12.333   -39 03 10.64  .70927 1.3563 103.3 21.2  317  19
2020 09 20 08  04 45 15.683   -39 03 25.32  .70933 1.3564 103.3 21.2  324  19
2020 09 20 09  04 45 19.026   -39 03 39.97  .70939 1.3565 103.3 21.2  331  19
2020 09 20 10  04 45 22.361   -39 03 54.60  .70945 1.3566 103.3 21.2  338  19
2020 09 20 11  04 45 25.688   -39 04 09.21  .70951 1.3567 103.3 21.2  345  19
2020 09 20 12  04 45 29.008   -39 04 23.79  .70957 1.3567 103.3 21.2  352  19
2020 09 20 13  04 45 32.321   -39 04 38.35  .70963 1.3568 103.4 21.2  359  19
2020 09 20 14  04 45 35.626   -39 04 52.89  .70969 1.3569 103.4 21.2  366  19
2020 09 20 15  04 45 38.923   -39 05 07.40  .70976 1.3570 103.4 21.2  373  19
2020 09 20 16  04 45 42.214   -39 05 21.89  .70982 1.3571 103.4 21.2  381  19
2020 09 20 17  04 45 45.496   -39 05 36.36  .70988 1.3572 103.4 21.2  388  19
2020 09 20 18  04 45 48.771   -39 05 50.80  .70994 1.3573 103.4 21.2  396  19
2020 09 20 19  04 45 52.039   -39 06 05.22  .71000 1.3574 103.4 21.2  403  19
2020 09 20 20  04 45 55.299   -39 06 19.61  .71006 1.3575 103.4 21.2  411  19
2020 09 20 21  04 45 58.552   -39 06 33.98  .71012 1.3576 103.4 21.2  419  19
2020 09 20 22  04 46 01.797   -39 06 48.32  .71018 1.3577 103.4 21.2  427  19
2020 09 20 23  04 46 05.035   -39 07 02.65  .71024 1.3578 103.4 21.2  435  19
2020 09 21 00  04 46 08.265   -39 07 16.94  .71030 1.3579 103.4 21.2  443  19
2020 09 21 01  04 46 11.488   -39 07 31.22  .71036 1.3580 103.4 21.2  451  19
2020 09 21 02  04 46 14.703   -39 07 45.47  .71042 1.3581 103.4 21.2  459  19
2020 09 21 03  04 46 17.911   -39 07 59.69  .71048 1.3582 103.4 21.2  468  19
2020 09 21 04  04 46 21.112   -39 08 13.90  .71055 1.3583 103.5 21.2  476  19
2020 09 21 05  04 46 24.305   -39 08 28.08  .71061 1.3584 103.5 21.2  484  19
2020 09 21 06  04 46 27.490   -39 08 42.23  .71067 1.3585 103.5 21.2  493  19
2020 09 21 07  04 46 30.668   -39 08 56.36  .71073 1.3586 103.5 21.2  502  19
2020 09 21 08  04 46 33.839   -39 09 10.47  .71079 1.3587 103.5 21.2  510  19
2020 09 21 09  04 46 37.002   -39 09 24.55  .71085 1.3587 103.5 21.2  519  19
2020 09 21 10  04 46 40.157   -39 09 38.61  .71091 1.3588 103.5 21.2  528  19
2020 09 21 11  04 46 43.305   -39 09 52.64  .71097 1.3589 103.5 21.2  537  19
2020 09 21 12  04 46 46.446   -39 10 06.65  .71103 1.3590 103.5 21.2  546  19
2020 09 21 13  04 46 49.579   -39 10 20.64  .71109 1.3591 103.5 21.2  556  19
2020 09 21 14  04 46 52.705   -39 10 34.60  .71115 1.3592 103.5 21.2  565  19
2020 09 21 15  04 46 55.823   -39 10 48.53  .71121 1.3593 103.5 21.2  574  19
2020 09 21 16  04 46 58.934   -39 11 02.45  .71127 1.3594 103.5 21.2  584  19
2020 09 21 17  04 47 02.038   -39 11 16.34  .71133 1.3595 103.6 21.2  593  19
2020 09 21 18  04 47 05.133   -39 11 30.20  .71139 1.3596 103.6 21.2  603  19
2020 09 21 19  04 47 08.222   -39 11 44.04  .71145 1.3597 103.6 21.2  613  19
2020 09 21 20  04 47 11.303   -39 11 57.86  .71151 1.3598 103.6 21.2  623  19